| time (UTC) | temp C | wind direction | speed KPH | gust KPH | rain 1hr cm | rain 24hr cm | rain mn cm | humidity % | barometer mb |
| 20260510180017 | 14 | 202 | 0.0 | 0.0 | 0.00 | 0.20 | 0.20 | 58 | 1008.2 |
| 20260510175518 | 14 | 45 | 0.0 | 4.8 | 0.00 | 0.20 | 0.20 | 57 | 1008.0 |
| 20260510175017 | 15 | 133 | 1.6 | 4.8 | 0.00 | 0.20 | 0.20 | 58 | 1008.1 |
| 20260510174517 | 15 | 158 | 1.6 | 1.6 | 0.00 | 0.20 | 0.20 | 57 | 1008.2 |
| 20260510174017 | 15 | 166 | 0.0 | 3.2 | 0.00 | 0.20 | 0.20 | 57 | 1008.1 |
| 20260510173517 | 15 | 4 | 0.0 | 8.0 | 0.00 | 0.20 | 0.20 | 56 | 1008.1 |
| 20260510173018 | 16 | 72 | 1.6 | 8.0 | 0.00 | 0.20 | 0.20 | 56 | 1008.0 |
| 20260510172521 | 16 | 228 | 1.6 | 8.0 | 0.00 | 0.20 | 0.20 | 56 | 1008.0 |
| 20260510172018 | 16 | 238 | 0.0 | 11.3 | 0.00 | 0.20 | 0.20 | 55 | 1008.0 |
| 20260510171518 | 17 | 211 | 3.2 | 9.7 | 0.00 | 0.20 | 0.20 | 55 | 1007.8 |
| 20260510171017 | 17 | 236 | 0.0 | 8.0 | 0.00 | 0.20 | 0.20 | 56 | 1007.7 |
| 20260510170517 | 17 | 180 | 3.2 | 8.0 | 0.00 | 0.20 | 0.20 | 56 | 1007.7 |
| 20260510170017 | 17 | 56 | 1.6 | 8.0 | 0.00 | 0.25 | 0.20 | 57 | 1007.8 |
| 20260510165517 | 17 | 241 | 0.0 | 11.3 | 0.00 | 0.51 | 0.20 | 57 | 1007.7 |
| 20260510165018 | 17 | 15 | 1.6 | 4.8 | 0.00 | 0.61 | 0.20 | 58 | 1007.8 |
| 20260510164516 | 17 | 167 | 4.8 | 12.9 | 0.00 | 0.66 | 0.20 | 60 | 1007.7 |
| 20260510164017 | 17 | 205 | 1.6 | 4.8 | 0.00 | 0.71 | 0.20 | 58 | 1007.9 |
| 20260510163518 | 17 | 225 | 0.0 | 1.6 | 0.00 | 0.71 | 0.20 | 57 | 1007.7 |
| 20260510163017 | 17 | 243 | 0.0 | 4.8 | 0.00 | 0.71 | 0.20 | 57 | 1007.7 |
| 20260510162517 | 18 | 204 | 0.0 | 4.8 | 0.00 | 0.71 | 0.20 | 57 | 1007.7 |
| 20260510162017 | 18 | 269 | 0.0 | 9.7 | 0.00 | 0.71 | 0.20 | 56 | 1007.5 |
| 20260510161517 | 18 | 262 | 0.0 | 8.0 | 0.00 | 0.71 | 0.20 | 57 | 1007.6 |
| 20260510161018 | 18 | 302 | 1.6 | 9.7 | 0.00 | 0.71 | 0.20 | 57 | 1007.5 |
| 20260510160518 | 18 | 179 | 3.2 | 12.9 | 0.00 | 0.71 | 0.20 | 57 | 1007.4 |
| 20260510160017 | 18 | 180 | 1.6 | 9.7 | 0.00 | 0.71 | 0.20 | 57 | 1007.5 |
| 20260510155517 | 18 | 242 | 1.6 | 9.7 | 0.00 | 0.71 | 0.20 | 58 | 1007.5 |
| 20260510155017 | 18 | 291 | 3.2 | 8.0 | 0.00 | 0.71 | 0.20 | 58 | 1007.7 |
| 20260510154517 | 18 | 168 | 1.6 | 11.3 | 0.00 | 0.71 | 0.20 | 59 | 1007.6 |
| 20260510154018 | 18 | 110 | 0.0 | 4.8 | 0.00 | 0.71 | 0.20 | 59 | 1007.6 |
| 20260510153517 | 18 | 274 | 3.2 | 11.3 | 0.00 | 0.71 | 0.20 | 59 | 1007.7 |
| 20260510153017 | 18 | 304 | 1.6 | 11.3 | 0.00 | 0.71 | 0.20 | 60 | 1007.7 |
| 20260510152517 | 18 | 199 | 0.0 | 9.7 | 0.00 | 0.71 | 0.20 | 61 | 1007.7 |
| 20260510152018 | 17 | 142 | 0.0 | 3.2 | 0.00 | 0.71 | 0.20 | 62 | 1007.7 |
| 20260510151519 | 17 | 148 | 0.0 | 4.8 | 0.00 | 0.71 | 0.20 | 61 | 1007.8 |
| 20260510151018 | 17 | 270 | 1.6 | 8.0 | 0.00 | 0.71 | 0.20 | 61 | 1008.1 |
| 20260510150516 | 17 | 161 | 0.0 | 4.8 | 0.00 | 0.71 | 0.20 | 60 | 1007.9 |
| 20260510150017 | 18 | 291 | 1.6 | 4.8 | 0.00 | 0.71 | 0.20 | 62 | 1008.0 |
| 20260510145517 | 17 | 204 | 0.0 | 0.0 | 0.00 | 0.71 | 0.20 | 62 | 1008.0 |
| 20260510145017 | 17 | 115 | 0.0 | 3.2 | 0.00 | 0.71 | 0.20 | 61 | 1008.1 |
| 20260510144517 | 18 | 229 | 0.0 | 9.7 | 0.00 | 0.71 | 0.20 | 60 | 1008.4 |
| 20260510144017 | 18 | 312 | 1.6 | 8.0 | 0.00 | 0.71 | 0.20 | 59 | 1008.4 |
| 20260510143517 | 19 | 343 | 1.6 | 4.8 | 0.00 | 0.71 | 0.20 | 61 | 1008.5 |
| 20260510143017 | 19 | 289 | 1.6 | 8.0 | 0.00 | 0.71 | 0.20 | 61 | 1008.5 |
| 20260510142517 | 19 | 186 | 1.6 | 8.0 | 0.00 | 0.71 | 0.20 | 61 | 1008.4 |
| 20260510142017 | 18 | 142 | 3.2 | 9.7 | 0.00 | 0.71 | 0.20 | 64 | 1008.6 |
| 20260510141518 | 18 | 147 | 1.6 | 9.7 | 0.00 | 0.71 | 0.20 | 66 | 1008.5 |
| 20260510141018 | 17 | 112 | 0.0 | 0.0 | 0.00 | 0.71 | 0.20 | 66 | 1008.7 |
| 20260510140519 | 17 | 139 | 0.0 | 0.0 | 0.00 | 0.71 | 0.20 | 68 | 1009.1 |
| 20260510140017 | 17 | 107 | 0.0 | 0.0 | 0.00 | 0.71 | 0.20 | 68 | 1009.2 |
| 20260510135517 | 16 | 202 | 0.0 | 0.0 | 0.00 | 0.71 | 0.20 | 69 | 1009.1 |
| 20260510135017 | 16 | 202 | 0.0 | 0.0 | 0.05 | 0.71 | 0.20 | 70 | 1009.1 |
| 20260510134517 | 16 | 190 | 0.0 | 1.6 | 0.05 | 0.71 | 0.20 | 71 | 1009.1 |
| 20260510134018 | 15 | 313 | 0.0 | 0.0 | 0.05 | 0.71 | 0.20 | 73 | 1009.0 |
| 20260510133517 | 15 | 199 | 0.0 | 0.0 | 0.05 | 0.71 | 0.20 | 74 | 1008.9 |
| 20260510133018 | 13 | 66 | 0.0 | 0.0 | 0.05 | 0.71 | 0.20 | 74 | 1009.0 |
| 20260510132517 | 13 | 112 | 1.6 | 4.8 | 0.15 | 0.71 | 0.20 | 73 | 1009.0 |
| 20260510132016 | 13 | 112 | 1.6 | 9.7 | 0.15 | 0.71 | 0.20 | 72 | 1009.2 |
| 20260510131517 | 13 | 11 | 1.6 | 4.8 | 0.15 | 0.71 | 0.20 | 72 | 1009.5 |
| 20260510131018 | 13 | 19 | 1.6 | 9.7 | 0.15 | 0.71 | 0.20 | 72 | 1009.5 |
| 20260510130518 | 13 | 48 | 1.6 | 9.7 | 0.15 | 0.71 | 0.20 | 72 | 1009.9 |
| 20260510130020 | 13 | 38 | 0.0 | 0.0 | 0.15 | 0.71 | 0.20 | 72 | 1009.9 |
| 20260510125517 | 13 | 20 | 0.0 | 0.0 | 0.15 | 0.71 | 0.20 | 71 | 1010.0 |
| 20260510125017 | 13 | 189 | 0.0 | 8.0 | 0.10 | 0.66 | 0.15 | 69 | 1009.9 |
| 20260510124520 | 13 | 230 | 1.6 | 8.0 | 0.10 | 0.66 | 0.15 | 67 | 1009.9 |
| 20260510124019 | 13 | 192 | 1.6 | 9.7 | 0.10 | 0.66 | 0.15 | 65 | 1009.9 |
| 20260510123517 | 15 | 284 | 0.0 | 11.3 | 0.10 | 0.66 | 0.15 | 62 | 1009.8 |
| 20260510123017 | 16 | 267 | 1.6 | 8.0 | 0.10 | 0.66 | 0.15 | 58 | 1009.7 |
| 20260510122519 | 17 | 272 | 0.0 | 0.0 | 0.00 | 0.56 | 0.05 | 54 | 1009.1 |
| 20260510122017 | 18 | 208 | 0.0 | 11.3 | 0.00 | 0.56 | 0.05 | 51 | 1008.3 |
| 20260510121517 | 19 | 206 | 1.6 | 9.7 | 0.00 | 0.56 | 0.05 | 47 | 1008.3 |
| 20260510121018 | 20 | 179 | 3.2 | 9.7 | 0.00 | 0.56 | 0.05 | 46 | 1008.1 |
| 20260510120520 | 21 | 77 | 1.6 | 9.7 | 0.00 | 0.56 | 0.05 | 46 | 1008.0 |
| 20260510120018 | 21 | 189 | 1.6 | 12.9 | 0.00 | 0.56 | 0.05 | 46 | 1008.0 |
| 20260510115518 | 21 | 190 | 1.6 | 11.3 | 0.00 | 0.56 | 0.05 | 47 | 1008.2 |
| 20260510115018 | 21 | 225 | 0.0 | 0.0 | 0.00 | 0.56 | 0.05 | 47 | 1008.2 |
| 20260510114517 | 22 | 246 | 0.0 | 0.0 | 0.00 | 0.56 | 0.05 | 45 | 1008.3 |
| 20260510114018 | 22 | 248 | 0.0 | 0.0 | 0.00 | 0.56 | 0.05 | 45 | 1008.3 |
| 20260510113519 | 22 | 180 | 0.0 | 0.0 | 0.00 | 0.56 | 0.05 | 45 | 1008.4 |
| 20260510113018 | 22 | 246 | 0.0 | 4.8 | 0.00 | 0.56 | 0.05 | 46 | 1008.4 |
| 20260510112518 | 22 | 236 | 0.0 | 0.0 | 0.00 | 0.56 | 0.05 | 46 | 1008.4 |
| 20260510112018 | 22 | 152 | 0.0 | 3.2 | 0.00 | 0.56 | 0.05 | 46 | 1008.4 |
| 20260510111518 | 21 | 159 | 1.6 | 4.8 | 0.00 | 0.56 | 0.05 | 48 | 1008.5 |
| 20260510111019 | 21 | 231 | 0.0 | 4.8 | 0.00 | 0.56 | 0.05 | 48 | 1008.5 |
| 20260510110517 | 21 | 231 | 1.6 | 8.0 | 0.00 | 0.56 | 0.05 | 47 | 1008.6 |
| 20260510110018 | 21 | 305 | 1.6 | 4.8 | 0.00 | 0.56 | 0.05 | 48 | 1008.7 |
| 20260510105519 | 20 | 334 | 1.6 | 4.8 | 0.00 | 0.56 | 0.05 | 48 | 1008.8 |
| 20260510105018 | 20 | 247 | 1.6 | 4.8 | 0.00 | 0.56 | 0.05 | 48 | 1008.7 |
| 20260510104518 | 21 | 297 | 0.0 | 9.7 | 0.00 | 0.56 | 0.05 | 48 | 1008.9 |
| 20260510104018 | 21 | 163 | 1.6 | 9.7 | 0.00 | 0.56 | 0.05 | 48 | 1008.9 |
| 20260510103519 | 21 | 174 | 1.6 | 8.0 | 0.00 | 0.56 | 0.05 | 48 | 1008.9 |
| 20260510103018 | 22 | 306 | 1.6 | 9.7 | 0.00 | 0.56 | 0.05 | 48 | 1009.0 |
| 20260510102519 | 21 | 238 | 1.6 | 11.3 | 0.00 | 0.56 | 0.05 | 50 | 1009.1 |
| 20260510102019 | 21 | 169 | 3.2 | 11.3 | 0.00 | 0.56 | 0.05 | 51 | 1009.1 |
| 20260510101518 | 21 | 132 | 3.2 | 9.7 | 0.00 | 0.56 | 0.05 | 50 | 1009.2 |
| 20260510101017 | 21 | 219 | 0.0 | 8.0 | 0.00 | 0.56 | 0.05 | 51 | 1009.2 |
| 20260510100520 | 21 | 160 | 3.2 | 9.7 | 0.00 | 0.56 | 0.05 | 50 | 1009.2 |
| 20260510100016 | 21 | 178 | 3.2 | 9.7 | 0.00 | 0.56 | 0.05 | 50 | 1009.4 |
| 20260510095519 | 21 | 177 | 0.0 | 9.7 | 0.00 | 0.56 | 0.05 | 50 | 1009.5 |
| 20260510095018 | 21 | 178 | 6.4 | 11.3 | 0.00 | 0.56 | 0.05 | 51 | 1009.4 |
| 20260510094517 | 21 | 263 | 1.6 | 14.5 | 0.00 | 0.56 | 0.05 | 50 | 1009.5 |
| 20260510094019 | 20 | 169 | 1.6 | 12.9 | 0.00 | 0.56 | 0.05 | 50 | 1009.4 |
| 20260510093518 | 21 | 206 | 3.2 | 9.7 | 0.00 | 0.56 | 0.05 | 49 | 1009.4 |
| 20260510093018 | 21 | 199 | 1.6 | 9.7 | 0.00 | 0.56 | 0.05 | 49 | 1009.5 |
| 20260510092518 | 21 | 199 | 0.0 | 8.0 | 0.00 | 0.56 | 0.05 | 49 | 1009.5 |
| 20260510092017 | 21 | 202 | 1.6 | 9.7 | 0.00 | 0.56 | 0.05 | 50 | 1009.3 |
| 20260510091517 | 21 | 186 | 1.6 | 9.7 | 0.00 | 0.56 | 0.05 | 49 | 1009.4 |
| 20260510091018 | 21 | 144 | 0.0 | 0.0 | 0.00 | 0.56 | 0.05 | 49 | 1009.5 |
| 20260510090518 | 21 | 218 | 0.0 | 3.2 | 0.00 | 0.56 | 0.05 | 49 | 1009.6 |
| 20260510090018 | 21 | 199 | 1.6 | 9.7 | 0.00 | 0.56 | 0.05 | 49 | 1009.6 |
| 20260510085517 | 21 | 232 | 3.2 | 9.7 | 0.00 | 0.56 | 0.05 | 52 | 1009.6 |
| 20260510085018 | 20 | 227 | 1.6 | 9.7 | 0.00 | 0.56 | 0.05 | 53 | 1009.7 |
| 20260510084518 | 19 | 238 | 1.6 | 8.0 | 0.00 | 0.56 | 0.05 | 51 | 1009.6 |
| 20260510084016 | 20 | 106 | 0.0 | 3.2 | 0.00 | 0.56 | 0.05 | 48 | 1009.8 |
| 20260510083518 | 20 | 135 | 0.0 | 3.2 | 0.00 | 0.56 | 0.05 | 48 | 1009.7 |
| 20260510083018 | 21 | 141 | 0.0 | 3.2 | 0.00 | 0.56 | 0.05 | 45 | 1009.8 |
| 20260510082517 | 22 | 315 | 0.0 | 0.0 | 0.00 | 0.56 | 0.05 | 42 | 1009.8 |
| 20260510082017 | 24 | 238 | 0.0 | 1.6 | 0.00 | 0.56 | 0.05 | 40 | 1009.5 |
| 20260510081517 | 26 | 139 | 0.0 | 9.7 | 0.00 | 0.56 | 0.05 | 38 | 1009.6 |
| 20260510081017 | 28 | 231 | 3.2 | 14.5 | 0.00 | 0.56 | 0.05 | 37 | 1009.5 |
| 20260510080516 | 28 | 294 | 1.6 | 11.3 | 0.00 | 0.56 | 0.05 | 39 | 1009.6 |
| 20260510080016 | 28 | 180 | 1.6 | 11.3 | 0.00 | 0.56 | 0.05 | 40 | 1009.5 |
| 20260510075517 | 27 | 322 | 1.6 | 4.8 | 0.00 | 0.56 | 0.05 | 41 | 1009.5 |
| 20260510075017 | 26 | 251 | 0.0 | 4.8 | 0.00 | 0.56 | 0.05 | 41 | 1009.5 |
| 20260510074516 | 26 | 250 | 0.0 | 4.8 | 0.00 | 0.56 | 0.05 | 41 | 1009.4 |
| 20260510074016 | 26 | 119 | 1.6 | 9.7 | 0.00 | 0.56 | 0.05 | 42 | 1009.4 |
| 20260510073517 | 26 | 216 | 1.6 | 4.8 | 0.00 | 0.56 | 0.05 | 40 | 1009.1 |
| 20260510073017 | 26 | 294 | 1.6 | 4.8 | 0.00 | 0.56 | 0.05 | 43 | 1009.2 |
| 20260510072517 | 26 | 112 | 0.0 | 0.0 | 0.00 | 0.56 | 0.05 | 44 | 1009.3 |
| 20260510072017 | 25 | 248 | 0.0 | 0.0 | 0.00 | 0.56 | 0.05 | 45 | 1009.2 |
| 20260510071517 | 25 | 356 | 0.0 | 1.6 | 0.00 | 0.56 | 0.05 | 45 | 1009.1 |
| 20260510071017 | 25 | 65 | 0.0 | 0.0 | 0.00 | 0.56 | 0.05 | 48 | 1009.1 |
| 20260510070517 | 24 | 180 | 0.0 | 0.0 | 0.00 | 0.56 | 0.05 | 50 | 1009.1 |
| 20260510070018 | 23 | 323 | 0.0 | 4.8 | 0.00 | 0.56 | 0.05 | 53 | 1009.0 |
| 20260510065517 | 22 | 48 | 0.0 | 4.8 | 0.00 | 0.56 | 0.05 | 55 | 1008.8 |
| 20260510065019 | 21 | 338 | 0.0 | 0.0 | 0.00 | 0.56 | 0.05 | 57 | 1008.7 |
| 20260510064518 | 21 | 22 | 0.0 | 0.0 | 0.00 | 0.56 | 0.05 | 60 | 1008.7 |
| 20260510064020 | 20 | 22 | 0.0 | 0.0 | 0.00 | 0.56 | 0.05 | 66 | 1008.6 |
| 20260510063517 | 18 | 22 | 0.0 | 0.0 | 0.00 | 0.56 | 0.05 | 72 | 1008.7 |
| 20260510063019 | 16 | 22 | 0.0 | 0.0 | 0.00 | 0.56 | 0.05 | 81 | 1008.5 |
| 20260510062519 | 15 | 22 | 0.0 | 0.0 | 0.00 | 0.56 | 0.05 | 88 | 1008.5 |
| 20260510062018 | 12 | 22 | 0.0 | 1.6 | 0.00 | 0.56 | 0.05 | 91 | 1008.4 |
| 20260510061516 | 11 | 346 | 0.0 | 4.8 | 0.00 | 0.56 | 0.05 | 91 | 1008.5 |
| 20260510061019 | 10 | 30 | 0.0 | 4.8 | 0.00 | 0.56 | 0.05 | 92 | 1008.4 |
| 20260510060520 | 8 | 347 | 0.0 | 4.8 | 0.00 | 0.56 | 0.05 | 91 | 1008.3 |
| 20260510060019 | 8 | 31 | 0.0 | 1.6 | 0.00 | 0.56 | 0.05 | 91 | 1008.4 |
| 20260510055518 | 7 | 22 | 0.0 | 0.0 | 0.00 | 0.56 | 0.05 | 91 | 1008.4 |
| 20260510055017 | 7 | 22 | 0.0 | 0.0 | 0.00 | 0.56 | 0.05 | 91 | 1008.4 |
| 20260510054516 | 7 | 68 | 0.0 | 0.0 | 0.00 | 0.56 | 0.05 | 91 | 1008.4 |
| 20260510054016 | 6 | 68 | 0.0 | 0.0 | 0.00 | 0.56 | 0.05 | 91 | 1008.3 |
| 20260510053516 | 6 | 320 | 0.0 | 0.0 | 0.00 | 0.56 | 0.05 | 91 | 1008.6 |
| 20260510053017 | 6 | 316 | 0.0 | 0.0 | 0.00 | 0.56 | 0.05 | 91 | 1008.4 |
| 20260510052516 | 6 | 338 | 0.0 | 0.0 | 0.00 | 0.56 | 0.05 | 91 | 1008.4 |
| 20260510052017 | 6 | 125 | 0.0 | 0.0 | 0.00 | 0.56 | 0.05 | 90 | 1008.4 |
| 20260510051516 | 6 | 68 | 0.0 | 0.0 | 0.00 | 0.56 | 0.05 | 90 | 1008.4 |
| 20260510051017 | 6 | 68 | 0.0 | 0.0 | 0.00 | 0.56 | 0.05 | 90 | 1008.2 |
| 20260510050516 | 6 | 58 | 1.6 | 3.2 | 0.00 | 0.56 | 0.05 | 90 | 1008.2 |
| 20260510050017 | 6 | 339 | 0.0 | 1.6 | 0.00 | 0.56 | 0.05 | 90 | 1008.2 |
| 20260510045517 | 6 | 90 | 0.0 | 0.0 | 0.00 | 0.56 | 0.05 | 90 | 1008.3 |
| 20260510045016 | 6 | 45 | 0.0 | 0.0 | 0.00 | 0.56 | 0.05 | 90 | 1008.1 |
| 20260510044516 | 6 | 45 | 0.0 | 0.0 | 0.00 | 0.56 | 0.05 | 90 | 1008.2 |
| 20260510044017 | 7 | 90 | 0.0 | 0.0 | 0.00 | 0.56 | 0.05 | 90 | 1008.3 |
| 20260510043516 | 7 | 90 | 0.0 | 0.0 | 0.00 | 0.56 | 0.05 | 90 | 1008.1 |
| 20260510043017 | 7 | 158 | 0.0 | 0.0 | 0.00 | 0.56 | 0.05 | 90 | 1008.3 |
| 20260510042518 | 7 | 82 | 0.0 | 0.0 | 0.00 | 0.56 | 0.05 | 89 | 1008.3 |
| 20260510042016 | 7 | 51 | 0.0 | 0.0 | 0.00 | 0.56 | 0.05 | 89 | 1008.1 |
| 20260510041518 | 7 | 90 | 0.0 | 0.0 | 0.00 | 0.56 | 0.05 | 89 | 1008.3 |
| 20260510041016 | 7 | 68 | 0.0 | 0.0 | 0.00 | 0.56 | 0.05 | 89 | 1008.3 |
| 20260510040017 | 7 | 45 | 0.0 | 3.2 | 0.00 | 0.56 | 0.05 | 89 | 1008.1 |
| 20260510035517 | 7 | 22 | 0.0 | 0.0 | 0.00 | 0.56 | 0.05 | 89 | 1008.2 |
| 20260510035017 | 7 | 32 | 0.0 | 0.0 | 0.00 | 0.56 | 0.05 | 89 | 1008.2 |
| 20260510034516 | 7 | 333 | 0.0 | 0.0 | 0.00 | 0.56 | 0.05 | 88 | 1008.4 |
| 20260510034018 | 8 | 22 | 0.0 | 0.0 | 0.00 | 0.56 | 0.05 | 89 | 1008.4 |
| 20260510033517 | 8 | 0 | 0.0 | 0.0 | 0.00 | 0.56 | 0.05 | 89 | 1008.3 |
| 20260510033017 | 8 | 68 | 0.0 | 0.0 | 0.00 | 0.56 | 0.05 | 88 | 1008.3 |
| 20260510032517 | 8 | 0 | 0.0 | 0.0 | 0.05 | 0.56 | 0.05 | 88 | 1008.2 |
| 20260510032018 | 8 | 0 | 0.0 | 0.0 | 0.05 | 0.56 | 0.05 | 87 | 1008.3 |
| 20260510031516 | 8 | 0 | 0.0 | 0.0 | 0.05 | 0.56 | 0.05 | 87 | 1008.1 |
| 20260510031016 | 8 | 0 | 0.0 | 0.0 | 0.05 | 0.56 | 0.05 | 87 | 1008.0 |
| 20260510030518 | 8 | 45 | 0.0 | 0.0 | 0.05 | 0.56 | 0.05 | 87 | 1007.9 |
| 20260510030016 | 8 | 32 | 0.0 | 0.0 | 0.05 | 0.56 | 0.05 | 86 | 1007.7 |
| 20260510025519 | 9 | 45 | 0.0 | 0.0 | 0.05 | 0.56 | 0.05 | 86 | 1007.8 |
| 20260510025016 | 9 | 45 | 0.0 | 0.0 | 0.05 | 0.56 | 0.05 | 86 | 1008.0 |
| 20260510024516 | 10 | 45 | 0.0 | 0.0 | 0.05 | 0.56 | 0.05 | 85 | 1008.0 |
| 20260510024017 | 10 | 45 | 0.0 | 0.0 | 0.05 | 0.56 | 0.05 | 85 | 1007.8 |
| 20260510023515 | 10 | 78 | 0.0 | 0.0 | 0.05 | 0.56 | 0.05 | 85 | 1008.0 |
| 20260510023016 | 10 | 288 | 0.0 | 0.0 | 0.05 | 0.56 | 0.05 | 85 | 1008.2 |
| 20260510022516 | 10 | 225 | 0.0 | 0.0 | 0.00 | 0.51 | 0.00 | 85 | 1008.3 |
| 20260510022016 | 10 | 180 | 0.0 | 9.7 | 0.00 | 0.51 | 0.00 | 86 | 1008.2 |
| 20260510021516 | 11 | 168 | 0.0 | 9.7 | 0.00 | 0.51 | 0.00 | 86 | 1008.1 |
| 20260510021017 | 11 | 233 | 0.0 | 0.0 | 0.00 | 0.51 | 0.00 | 86 | 1008.1 |
| 20260510020516 | 11 | 225 | 0.0 | 0.0 | 0.00 | 0.51 | 0.00 | 86 | 1008.3 |
| 20260510020016 | 11 | 220 | 0.0 | 3.2 | 0.00 | 0.51 | 0.00 | 87 | 1008.3 |
| 20260510015516 | 11 | 177 | 0.0 | 3.2 | 0.00 | 0.51 | 0.00 | 88 | 1008.1 |
| 20260510015016 | 11 | 192 | 0.0 | 4.8 | 0.00 | 0.51 | 0.00 | 89 | 1008.0 |
| 20260510014516 | 11 | 227 | 1.6 | 4.8 | 0.00 | 0.51 | 0.00 | 89 | 1008.0 |
| 20260510014016 | 11 | 301 | 0.0 | 3.2 | 0.00 | 0.51 | 0.00 | 90 | 1008.0 |
| 20260510013517 | 10 | 189 | 0.0 | 4.8 | 0.00 | 0.51 | 0.00 | 90 | 1008.0 |
| 20260510013017 | 10 | 236 | 0.0 | 4.8 | 0.00 | 0.51 | 0.00 | 90 | 1008.1 |
| 20260510012516 | 10 | 230 | 1.6 | 9.7 | 0.00 | 0.51 | 0.00 | 90 | 1007.9 |
| 20260510012016 | 10 | 237 | 0.0 | 0.0 | 0.00 | 0.51 | 0.00 | 90 | 1007.9 |
| 20260510011516 | 10 | 202 | 0.0 | 0.0 | 0.00 | 0.51 | 0.00 | 90 | 1007.9 |
| 20260510011016 | 10 | 202 | 0.0 | 0.0 | 0.00 | 0.51 | 0.00 | 90 | 1008.4 |
| 20260510010517 | 10 | 68 | 0.0 | 0.0 | 0.00 | 0.51 | 0.00 | 90 | 1008.4 |
| 20260510010016 | 10 | 45 | 0.0 | 0.0 | 0.00 | 0.51 | 0.00 | 90 | 1008.5 |
| 20260510005516 | 10 | 45 | 0.0 | 0.0 | 0.00 | 0.51 | 0.00 | 90 | 1008.5 |
| 20260510005016 | 10 | 68 | 0.0 | 0.0 | 0.00 | 0.51 | 0.00 | 90 | 1008.6 |
| 20260510004516 | 10 | 68 | 0.0 | 0.0 | 0.00 | 0.51 | 0.00 | 90 | 1008.8 |
| 20260510004017 | 10 | 68 | 0.0 | 1.6 | 0.00 | 0.51 | 0.00 | 90 | 1008.7 |
| 20260510003516 | 10 | 68 | 0.0 | 1.6 | 0.00 | 0.51 | 0.00 | 90 | 1008.6 |
| 20260510003017 | 10 | 68 | 0.0 | 0.0 | 0.00 | 0.51 | 0.00 | 90 | 1008.6 |
| 20260510002517 | 10 | 68 | 0.0 | 0.0 | 0.00 | 0.51 | 0.00 | 90 | 1008.8 |
| 20260510002016 | 10 | 68 | 0.0 | 0.0 | 0.00 | 0.51 | 0.00 | 89 | 1008.8 |
| 20260510001516 | 10 | 68 | 0.0 | 0.0 | 0.00 | 0.51 | 0.00 | 89 | 1008.7 |
| 20260510001017 | 10 | 68 | 0.0 | 0.0 | 0.00 | 0.51 | 0.00 | 89 | 1008.7 |
| 20260510000516 | 10 | 68 | 0.0 | 0.0 | 0.00 | 0.51 | 0.00 | 89 | 1008.6 |
| 20260510000017 | 10 | 68 | 0.0 | 1.6 | 0.00 | 0.51 | 0.00 | 89 | 1008.7 |
| 20260509235516 | 10 | 112 | 0.0 | 0.0 | 0.00 | 0.51 | 0.00 | 89 | 1008.6 |
| 20260509235017 | 10 | 22 | 0.0 | 0.0 | 0.00 | 0.51 | 0.00 | 89 | 1008.7 |
| 20260509234516 | 10 | 68 | 0.0 | 0.0 | 0.00 | 0.51 | 0.00 | 89 | 1008.5 |
| 20260509234016 | 10 | 68 | 0.0 | 0.0 | 0.00 | 0.51 | 0.00 | 89 | 1008.7 |
| 20260509233516 | 10 | 68 | 0.0 | 0.0 | 0.00 | 0.51 | 0.00 | 89 | 1008.4 |
| 20260509233017 | 10 | 112 | 0.0 | 3.2 | 0.00 | 0.51 | 0.00 | 89 | 1008.4 |
| 20260509232516 | 10 | 180 | 0.0 | 3.2 | 0.00 | 0.51 | 0.00 | 89 | 1008.4 |
| 20260509232016 | 10 | 133 | 0.0 | 0.0 | 0.00 | 0.51 | 0.00 | 89 | 1008.4 |
| 20260509231517 | 10 | 248 | 0.0 | 0.0 | 0.00 | 0.51 | 0.00 | 88 | 1008.8 |
| 20260509231017 | 10 | 248 | 0.0 | 0.0 | 0.00 | 0.51 | 0.00 | 88 | 1008.7 |
| 20260509230517 | 10 | 68 | 0.0 | 0.0 | 0.00 | 0.51 | 0.00 | 88 | 1008.5 |
| 20260509230016 | 10 | 56 | 0.0 | 0.0 | 0.00 | 0.51 | 0.00 | 88 | 1008.4 |
| 20260509225515 | 10 | 68 | 0.0 | 0.0 | 0.00 | 0.51 | 0.00 | 88 | 1008.4 |
| 20260509225016 | 10 | 25 | 0.0 | 0.0 | 0.00 | 0.51 | 0.00 | 88 | 1008.4 |
| 20260509224516 | 10 | 22 | 0.0 | 0.0 | 0.00 | 0.51 | 0.00 | 88 | 1008.5 |
| 20260509224016 | 10 | 22 | 0.0 | 0.0 | 0.00 | 0.51 | 0.00 | 87 | 1008.5 |
| 20260509223516 | 10 | 22 | 0.0 | 0.0 | 0.00 | 0.51 | 0.00 | 87 | 1008.5 |
| 20260509223017 | 10 | 22 | 0.0 | 0.0 | 0.00 | 0.51 | 0.00 | 87 | 1008.5 |
| 20260509222516 | 10 | 22 | 0.0 | 0.0 | 0.00 | 0.51 | 0.00 | 87 | 1008.5 |
| 20260509222016 | 10 | 68 | 0.0 | 0.0 | 0.00 | 0.51 | 0.00 | 86 | 1008.5 |
| 20260509221516 | 10 | 158 | 0.0 | 0.0 | 0.00 | 0.51 | 0.00 | 86 | 1008.5 |
| 20260509221015 | 10 | 158 | 0.0 | 0.0 | 0.00 | 0.51 | 0.00 | 86 | 1008.4 |
| 20260509220516 | 10 | 158 | 0.0 | 0.0 | 0.00 | 0.51 | 0.00 | 86 | 1008.6 |
| 20260509220016 | 11 | 158 | 0.0 | 0.0 | 0.00 | 0.51 | 0.00 | 86 | 1008.4 |
| 20260509215517 | 11 | 158 | 0.0 | 0.0 | 0.00 | 0.51 | 0.51 | 85 | 1008.4 |
| 20260509215016 | 11 | 158 | 0.0 | 0.0 | 0.00 | 0.51 | 0.51 | 85 | 1008.4 |
| 20260509214515 | 11 | 158 | 0.0 | 0.0 | 0.00 | 0.51 | 0.51 | 85 | 1008.4 |
| 20260509214015 | 11 | 157 | 0.0 | 0.0 | 0.00 | 0.51 | 0.51 | 85 | 1008.3 |
| 20260509213516 | 11 | 125 | 0.0 | 0.0 | 0.00 | 0.51 | 0.51 | 85 | 1008.3 |
| 20260509213015 | 11 | 147 | 0.0 | 3.2 | 0.00 | 0.51 | 0.51 | 85 | 1008.2 |
| 20260509212515 | 11 | 108 | 0.0 | 1.6 | 0.00 | 0.51 | 0.51 | 85 | 1008.3 |
| 20260509212016 | 11 | 86 | 0.0 | 1.6 | 0.00 | 0.51 | 0.51 | 85 | 1008.2 |
| 20260509211515 | 11 | 112 | 1.6 | 3.2 | 0.00 | 0.51 | 0.51 | 85 | 1008.3 |
| 20260509211016 | 11 | 63 | 0.0 | 3.2 | 0.00 | 0.51 | 0.51 | 84 | 1008.5 |
| 20260509210517 | 11 | 90 | 0.0 | 0.0 | 0.00 | 0.51 | 0.51 | 84 | 1008.4 |
| 20260509210016 | 11 | 68 | 1.6 | 8.0 | 0.00 | 0.51 | 0.51 | 83 | 1008.4 |
| 20260509205516 | 11 | 90 | 0.0 | 3.2 | 0.00 | 0.51 | 0.51 | 84 | 1008.5 |
| 20260509205016 | 11 | 68 | 1.6 | 4.8 | 0.00 | 0.51 | 0.51 | 83 | 1008.4 |
| 20260509204517 | 12 | 112 | 1.6 | 8.0 | 0.00 | 0.51 | 0.51 | 83 | 1008.3 |
| 20260509204017 | 12 | 101 | 1.6 | 9.7 | 0.00 | 0.51 | 0.51 | 83 | 1008.5 |
| 20260509203516 | 12 | 123 | 0.0 | 8.0 | 0.00 | 0.51 | 0.51 | 84 | 1008.4 |
| 20260509203016 | 12 | 139 | 1.6 | 8.0 | 0.00 | 0.51 | 0.51 | 84 | 1008.4 |
| 20260509202516 | 12 | 86 | 0.0 | 8.0 | 0.00 | 0.51 | 0.51 | 84 | 1008.4 |
| 20260509202016 | 12 | 67 | 0.0 | 4.8 | 0.00 | 0.51 | 0.51 | 84 | 1008.3 |
| 20260509201515 | 12 | 84 | 0.0 | 9.7 | 0.00 | 0.51 | 0.51 | 84 | 1008.3 |
| 20260509201016 | 12 | 117 | 0.0 | 4.8 | 0.00 | 0.51 | 0.51 | 84 | 1008.3 |
| 20260509200516 | 12 | 103 | 1.6 | 4.8 | 0.00 | 0.51 | 0.51 | 84 | 1008.1 |
| 20260509200016 | 12 | 117 | 0.0 | 0.0 | 0.00 | 0.51 | 0.51 | 84 | 1008.1 |
| 20260509195516 | 12 | 90 | 0.0 | 3.2 | 0.00 | 0.51 | 0.51 | 85 | 1008.0 |
| 20260509195015 | 12 | 158 | 0.0 | 0.0 | 0.00 | 0.51 | 0.51 | 84 | 1008.1 |
| 20260509194515 | 12 | 135 | 0.0 | 0.0 | 0.00 | 0.51 | 0.51 | 84 | 1007.7 |
| 20260509194016 | 12 | 135 | 0.0 | 3.2 | 0.00 | 0.61 | 0.51 | 84 | 1007.7 |
| 20260509193516 | 12 | 118 | 0.0 | 3.2 | 0.00 | 0.61 | 0.51 | 84 | 1007.7 |
| 20260509193016 | 13 | 112 | 0.0 | 0.0 | 0.00 | 0.61 | 0.51 | 84 | 1007.7 |
| 20260509192516 | 13 | 112 | 0.0 | 0.0 | 0.00 | 0.61 | 0.51 | 83 | 1007.7 |
| 20260509192017 | 13 | 112 | 0.0 | 0.0 | 0.00 | 0.61 | 0.51 | 83 | 1007.5 |
| 20260509191515 | 13 | 133 | 0.0 | 0.0 | 0.00 | 0.61 | 0.51 | 83 | 1007.6 |
| 20260509191016 | 13 | 131 | 0.0 | 1.6 | 0.00 | 0.61 | 0.51 | 83 | 1007.5 |
| 20260509190518 | 13 | 97 | 0.0 | 0.0 | 0.00 | 0.61 | 0.51 | 83 | 1007.6 |
| 20260509190017 | 13 | 126 | 1.6 | 8.0 | 0.00 | 0.61 | 0.51 | 83 | 1007.6 |
| 20260509185516 | 13 | 105 | 1.6 | 4.8 | 0.00 | 0.61 | 0.51 | 83 | 1007.5 |
| 20260509185017 | 14 | 129 | 0.0 | 0.0 | 0.00 | 0.61 | 0.51 | 83 | 1007.5 |
| 20260509184515 | 14 | 158 | 0.0 | 0.0 | 0.00 | 0.61 | 0.51 | 83 | 1007.5 |
| 20260509184016 | 14 | 158 | 0.0 | 8.0 | 0.00 | 0.61 | 0.51 | 83 | 1007.5 |
| 20260509183517 | 14 | 112 | 1.6 | 12.9 | 0.00 | 0.61 | 0.51 | 83 | 1007.4 |
| 20260509183017 | 14 | 94 | 0.0 | 4.8 | 0.00 | 0.61 | 0.51 | 84 | 1007.4 |
| 20260509182516 | 14 | 125 | 1.6 | 3.2 | 0.00 | 0.61 | 0.51 | 84 | 1007.4 |
| 20260509182017 | 14 | 90 | 0.0 | 3.2 | 0.00 | 0.61 | 0.51 | 85 | 1007.3 |
| 20260509181517 | 14 | 90 | 0.0 | 0.0 | 0.00 | 0.61 | 0.51 | 84 | 1007.4 |
| 20260509181019 | 14 | 90 | 0.0 | 0.0 | 0.00 | 0.61 | 0.51 | 84 | 1007.5 |
| 20260509180517 | 14 | 90 | 0.0 | 1.6 | 0.00 | 0.61 | 0.51 | 83 | 1007.6 |